Home > Weather > Ålesund > Past weeks

Flag for Norway Past Weather in Ålesund, Norway — Yesterday and Last 2 Weeks

Now
59 °F

Partly sunny.


Feels Like: 58 °F
Forecast: 58 / 64 °F
Wind: 8 mph from West

Location: Alesund / Vigra

Current Time: Jul 26, 2016 at 6:45:23 AM

Latest Report: Jul 26, 2016 at 5:50 AM


Visibility: N/A

Pressure: 29.83 "Hg

Humidity: 88%

Dew Point: 55 °F

Location of ÅlesundLocation

Past Weather in Ålesund — Graph

°F

Ålesund Temperature Yesterday

Maximum temperature yesterday: 70 °F (at 1:20 PM)
Minimum temperature yesterday: 57 °F (at 2:20 AM)
Average temperature yesterday: 63 °F

High & Low Weather Summary for the Past Weeks

 TemperatureHumidityPressure
High82 °F (Jul 21, 4:20 PM)100% (Jul 11, 5:20 AM)30.12 "Hg (Jul 11, 5:20 AM)
Low52 °F (Jul 19, 1:50 AM)45% (Jul 21, 4:20 PM)29.45 "Hg (Jul 11, 5:20 AM)
Average59 °F84%29.89 "Hg
* Reported Jul 11 5:20 AM — Jul 26 5:20 AM, Ålesund, Weather by CustomWeather, © 2016

Note: Actual official high and low records may vary slightly from our data, if they occured in-between our weather recording intervals... More about our weather records

Advertising

Ålesund Weather History for the Previous 24 Hours

Scroll right to see more
 ConditionsComfort  
Time TempWeatherWind HumidityBarometerVisibility
5:20 AM
Tue, Jul 26
59 °FPassing clouds.10 mph88%29.83 "HgN/A
4:50 AM59 °FDrizzle. Overcast.9 mph88%29.83 "HgN/A
4:20 AM59 °FMostly cloudy.10 mph88%29.83 "HgN/A
3:50 AM59 °FOvercast.12 mph88%29.83 "HgN/A
3:20 AM59 °FOvercast.9 mph94%29.83 "HgN/A
2:50 AM59 °FMostly cloudy.3 mph94%29.83 "HgN/A
2:20 AM59 °FLow clouds.3 mph100%29.83 "HgN/A
1:50 AM59 °FPartly cloudy.5 mph94%29.83 "HgN/A
1:20 AM61 °FPassing clouds.6 mph94%29.83 "HgN/A
12:50 AM61 °FMostly cloudy.3 mph94%29.83 "HgN/A
12:20 AM61 °FLight rain. Passing clouds.3 mph94%29.83 "HgN/A
11:50 PM
Mon, Jul 25
61 °FPartly cloudy.3 mph94%29.83 "HgN/A
11:20 PM61 °FBroken clouds.3 mph94%29.83 "HgN/A
10:50 PM61 °FLight rain. Broken clouds.2 mph94%29.83 "HgN/A
10:20 PM61 °FLight rain. Broken clouds.3 mph94%29.83 "Hg5 mi
9:50 PM61 °FSprinkles. Broken clouds.6 mph94%29.86 "HgN/A
9:20 PM61 °FSprinkles. Broken clouds.14 mph100%29.86 "Hg6 mi
8:50 PM61 °FStrong thunderstorms. Dense fog.17 mph94%29.86 "Hg1 mi
8:20 PM63 °FThundershowers. Partly sunny.9 mph94%29.80 "HgN/A
7:50 PM64 °FPartly sunny.6 mph83%29.80 "HgN/A
7:20 PM66 °FPassing clouds.6 mph73%29.80 "HgN/A
6:50 PM68 °FPassing clouds.10 mph69%29.80 "HgN/A
6:20 PM66 °FSunny.13 mph78%29.80 "Hg10 mi
5:50 PM66 °FSunny.9 mph73%29.83 "Hg10 mi
5:20 PM68 °FScattered clouds.10 mph78%29.83 "HgN/A
4:50 PM70 °FPartly sunny.9 mph69%29.83 "HgN/A
4:20 PM70 °FSunny.9 mph73%29.86 "Hg10 mi
3:50 PM68 °FSunny.9 mph78%29.86 "Hg10 mi
3:20 PM68 °FSunny.10 mph78%29.86 "Hg10 mi
2:50 PM68 °FSunny.9 mph78%29.86 "Hg10 mi
2:20 PM68 °FSunny.9 mph78%29.89 "Hg10 mi
1:50 PM68 °FSunny.6 mph78%29.89 "Hg10 mi
1:20 PM70 °FSunny.6 mph73%29.89 "Hg10 mi
12:50 PM68 °FPassing clouds.3 mph78%29.89 "HgN/A
12:20 PM66 °FSunny.3 mph78%29.89 "Hg10 mi
11:50 AM66 °FPassing clouds.3 mph78%29.92 "HgN/A
11:20 AM66 °FSunny.3 mph78%29.92 "Hg10 mi
10:20 AM63 °FSunny.2 mph88%29.92 "Hg10 mi
9:50 AM63 °FScattered clouds.5 mph88%29.92 "HgN/A
9:20 AM63 °FBroken clouds.6 mph88%29.92 "HgN/A
8:50 AM63 °FPartly sunny.5 mph88%29.92 "HgN/A
8:20 AM63 °FPartly sunny.3 mph88%29.95 "HgN/A
7:50 AM61 °FSunny.3 mph94%29.95 "Hg10 mi
7:20 AM61 °FScattered clouds.2 mph94%29.95 "HgN/A
6:50 AM61 °FPartly sunny.2 mph94%29.95 "HgN/A
6:20 AM59 °FPartly sunny.2 mph100%29.95 "HgN/A
Weather by CustomWeather, © 2016

See weather overviewHow to use our weather pages